Jacksonville, FL

2:02 AM EST on February 14, 2016 (GMT -0500)
Craig Municipal

Weather History for KCRG - June, 2014

Change the Weather History Date:

Saturday, June 7, 2014

  Actual Average Record
Temperature  
Mean Temperature 78 °F -  
Max Temperature 86 °F 85 °F 93 °F (2001)
Min Temperature 71 °F 68 °F 60 °F (2006)
Cooling Degree Days 12    
Growing Degree Days 28 (Base 50)    
Moisture  
Dew Point 69 °F    
Average Humidity 82    
Maximum Humidity 94    
Minimum Humidity 56    
Precipitation  
Precipitation 0.62 in - - ()
Sea Level Pressure  
Sea Level Pressure 29.97 in    
Wind  
Wind Speed 9 mph (NW)    
Max Wind Speed 14 mph    
Max Gust Speed 18 mph    
Visibility 9 miles    
Events Rain , Thunderstorm    
Averages and records for this station are not official NWS values.
T = Trace of Precipitation, MM = Missing Value Source: NWS Daily Summary

Daily Weather History Graph

Daily Weather History Graph

Search for Another Location

Airport or City:

Trip Planner

Search our weather history database for the weather conditions in past years. The results will help you decide how hot, cold, wet, or windy it might be!

Date:

Astronomy

Jun. 07, 2014 Rise Set
Actual Time 6:23 AM EDT 8:26 PM EDT
Civil Twilight 5:56 AM EDT 8:53 PM EDT
Nautical Twilight 5:23 AM EDT 9:27 PM EDT
Astronomical Twilight 4:47 AM EDT 10:02 PM EDT
Moon 3:03 PM EDT (6/7) 2:21 AM EDT (6/7)
Length of Visible Light 14h 57m
Length of Day
14h 02m
Waxing Gibbous, 67% of the Moon is Illuminated
Jun 7
Waxing Gibbous
Jun 13
Full
Jun 19
Last Quarter
Jun 27
New
Jul 5
First Quarter

Hourly Weather History & Observations

Time (EDT) Temp. Heat Index Dew Point Humidity Pressure Visibility Wind Dir Wind Speed Gust Speed Precip Events Conditions
12:53 AM 75.9 °F - 70.0 °F 82% 29.99 in 10.0 mi NNW 9.2 mph - N/A   Overcast
1:19 AM 73.0 °F - 70.0 °F 90% 30.00 in 2.5 mi NNE 11.5 mph 18.4 mph 0.03 in Rain , Thunderstorm Heavy Thunderstorms and Rain
1:34 AM 73.0 °F - 70.0 °F 90% 30.00 in 8.0 mi NNE 10.4 mph - 0.08 in Rain , Thunderstorm Light Thunderstorms and Rain
1:43 AM 73.0 °F - 70.0 °F 90% 30.00 in 10.0 mi North 9.2 mph - 0.11 in Rain , Thunderstorm Light Rain
1:51 AM 73.4 °F - 69.8 °F 88% 30.00 in 10.0 mi North 10.4 mph - 0.14 in Rain , Thunderstorm Light Thunderstorms and Rain
1:53 AM 73.0 °F - 70.0 °F 90% 30.01 in 10.0 mi North 12.7 mph - 0.14 in Rain , Thunderstorm Light Thunderstorms and Rain
2:00 AM 73.0 °F - 70.0 °F 90% 30.00 in 10.0 mi North 10.4 mph - 0.02 in Rain , Thunderstorm Light Rain
2:26 AM 72.0 °F - 69.1 °F 91% 30.03 in 3.0 mi NNW 10.4 mph - 0.07 in Rain , Thunderstorm Heavy Thunderstorms and Rain
2:41 AM 72.0 °F - 69.1 °F 91% 30.03 in 3.0 mi NNW 10.4 mph - 0.12 in Rain , Thunderstorm Heavy Rain
2:49 AM 71.6 °F - 69.8 °F 94% 30.03 in 3.0 mi NNW 9.2 mph - 0.15 in Rain Heavy Rain
2:53 AM 72.0 °F - 70.0 °F 93% 30.02 in 3.0 mi NW 6.9 mph - 0.17 in Rain Rain
3:02 AM 72.0 °F - 70.0 °F 93% 30.01 in 2.0 mi North 9.2 mph - 0.03 in Rain Heavy Rain
3:13 AM 72.0 °F - 70.0 °F 93% 29.99 in 4.0 mi North 4.6 mph - 0.07 in Rain Rain
3:53 AM 71.1 °F - 69.1 °F 93% 29.84 in 7.0 mi ESE 12.7 mph - 0.23 in Rain Light Rain
4:53 AM 72.0 °F - 70.0 °F 93% 29.83 in 10.0 mi ENE 4.6 mph - 0.08 in   Partly Cloudy
5:43 AM 72.0 °F - 70.0 °F 93% 29.89 in 10.0 mi WSW 12.7 mph - N/A   Partly Cloudy
5:53 AM 72.0 °F - 70.0 °F 93% 29.90 in 10.0 mi SW 11.5 mph - N/A   Partly Cloudy
6:53 AM 72.0 °F - 70.0 °F 93% 29.94 in 10.0 mi WSW 5.8 mph - N/A   Clear
7:08 AM 72.0 °F - 70.0 °F 93% 29.97 in 10.0 mi NW 5.8 mph - N/A   Scattered Clouds
7:17 AM 72.0 °F - 70.0 °F 93% 29.97 in 10.0 mi NW 6.9 mph - N/A   Mostly Cloudy
7:53 AM 72.0 °F - 70.0 °F 93% 29.99 in 10.0 mi NW 5.8 mph - N/A   Overcast
8:53 AM 73.0 °F - 68.0 °F 84% 30.01 in 10.0 mi WNW 8.1 mph - N/A   Overcast
9:01 AM 73.0 °F - 68.0 °F 84% 30.02 in 10.0 mi NW 8.1 mph - N/A   Mostly Cloudy
9:53 AM 73.0 °F - 68.0 °F 84% 30.02 in 10.0 mi NW 8.1 mph - N/A   Overcast
10:13 AM 75.0 °F - 68.0 °F 79% 30.01 in 10.0 mi West 6.9 mph - N/A   Scattered Clouds
10:53 AM 78.1 °F - 68.0 °F 71% 30.01 in 10.0 mi WSW 8.1 mph - N/A   Partly Cloudy
11:53 AM 82.0 °F 84.9 °F 68.0 °F 62% 30.00 in 10.0 mi WNW 10.4 mph - N/A   Clear
12:53 PM 84.0 °F 87.0 °F 68.0 °F 58% 29.98 in 10.0 mi NW 11.5 mph - N/A   Clear
1:53 PM 82.9 °F 85.0 °F 66.0 °F 56% 29.97 in 10.0 mi NW 13.8 mph - N/A   Clear
2:53 PM 82.9 °F 85.8 °F 68.0 °F 60% 29.95 in 10.0 mi NNW 12.7 mph - N/A   Clear
3:53 PM 82.9 °F 85.8 °F 68.0 °F 60% 29.94 in 10.0 mi NW 9.2 mph - N/A   Clear
4:53 PM 82.0 °F 84.9 °F 68.0 °F 62% 29.94 in 10.0 mi NNW 9.2 mph - 0.00 in   Clear
5:53 PM 82.9 °F 86.5 °F 69.1 °F 63% 29.93 in 10.0 mi North 9.2 mph - N/A   Clear
6:53 PM 82.0 °F 84.9 °F 68.0 °F 62% 29.93 in 10.0 mi NW 5.8 mph - N/A   Clear
7:53 PM 82.0 °F 85.5 °F 69.1 °F 65% 29.94 in 10.0 mi NW 6.9 mph - N/A   Overcast
8:53 PM 78.1 °F - 70.0 °F 76% 29.96 in 10.0 mi Calm Calm - N/A   Clear
9:53 PM 75.0 °F - 70.0 °F 84% 29.96 in 10.0 mi ENE 4.6 mph - N/A   Clear
10:53 PM 73.0 °F - 69.1 °F 87% 29.97 in 10.0 mi Calm Calm - N/A   Clear
11:53 PM 72.0 °F - 69.1 °F 91% 29.98 in 10.0 mi SSE 3.5 mph - N/A   Partly Cloudy